Terug naar catalogus

STARLINK-36932

ActiefCommunicatieVLEO
NORAD 68331·PAYLOAD·🇺🇸 United States

Gelanceerd Mar 22, 2026 vanaf Cape Canaveral Space Force Station

Loading…

Volgende Passages (komende 24 uur)

TLE

VersSource: CelesTrak SupGP

Epoch: Sep 15, 2026, 02:55 UTC

1 68331C 26059L   26258.12201389 -.00036199  00000+0 -10696-2 0  2583
2 68331  53.1578 180.9557 0001329  87.5701 243.4318 15.34406330    15

Volg STARLINK-36932 in realtime met AllMySat

Download on the App Store